Location: Unspecified
(0.0000°N, 0.0000°E)
Time: 00:05:11
(UTC+00:00)

Vanguard 1 Rocket - Pass Details

Date: 25 January 2020
Orbit: 650 x 4226 km, 34.3° (Epoch: 26 February)

Event Time Altitude Azimuth Distance (km) Brightness Sun altitude
Rises 19:46:31 0° 286° (WNW) 8,348 13.1 -22.2°
Reaches altitude 10° 19:53:01 10° 279° (W) 7,423 12.8 -23.7°
Maximum altitude 20:15:59 39° 218° (SW) 4,712 11.3 -29.1°
Drops below altitude 10° 20:32:08 10° 152° (SSE) 5,284 11.2 -32.8°
Sets 20:35:54 0° 144° (SE) 5,853 11.4 -33.7°
